Погода в Канпуре

Индия     26°26′39″N   80°19′15″E
темп.,
°C
ветер,
м/с
пор.,
м/с
влажн.,
%
обл.,
%
осадки,
мм/ч
давл.,
гПа
погр.,
м
7 мая, пт
пт723:30+30всв4839100 0.1 1006234
02:30+29в484250 0.0 1006266
05:30+27всв4855100 0.0 1007330
08:30+32в563913 0.0 1009639
11:30+39всв432214 0.0 10072058
14:30+40ссв541889 0.0 10043832
17:30+31ссв4533100 1.2 1004240
20:30+30ссв5103266 0.4 1005199
8 мая, сб
сб823:30+29всв594127 0.8 1006395
02:30+27ссв23471 0.0 100645
05:30+27в22482 0.0 100734
08:30+33вюв33315 0.0 1009691
11:30+38ююз22225 0.0 10072037
14:30+40зсз461423 0.0 10034354
17:30+40зсз361423 0.0 10014011
20:30+37ссв231722 0.0 100380
9 мая, вс
вс923:30+34св34195 0.0 100383
02:30+32всв482396 0.0 1003177
05:30+29в5103748 0.0 1004227
08:30+36юв352695 0.0 1006692
11:30+41ююз231434 0.0 10043802
14:30+38ю8817100 0.0 10021360
17:30+40юз351411 0.0 10002602
20:30+33вюв472615 0.0 1002241
10 мая, пн
пн1023:30+32ю33281 0.0 100257
02:30+31ююз24285 0.0 100062
05:30+29св333013 0.0 100229
08:30+35вюв22212 0.0 1003468
11:30+41зсз24140 0.0 10022251
14:30+43сз67117 0.0 9994756
17:30+42ссз561125 0.0 9964339
20:30+37з581679 0.0 999197
11 мая, вт
вт1123:30+35зсз91521100 0.0 1000565
02:30+31зюз222599 0.0 99922
05:30+30з34285 0.3 100061
08:30+36зсз332060 0.0 1002789
11:30+40зсз47146 0.0 10012395
14:30+42сз561240 0.0 9984474
17:30+38зсз10111891 0.0 9961058
20:30+37зюз481743 0.0 997277